星链-3995 (STARLINK-3995 )

导读 | 豆包AI

STARLINK-3995是美国(US)SpaceX星链(Starlink)项目的卫星,于2022年5月14日发射。它属于星链低轨互联网卫星星座,主要为全球提供高速互联网接入服务,尤其服务偏远地区与网络基础设施薄弱区域,是星链大规模组网进程中的一颗卫星,支撑星座的全球覆盖能力建设。

Basic Information
目录编号:
52632
目录名称:
STARLINK-3995
国际标识:
2022-052AL
轨道中心:
EARTH
卫星名称:
星链-3995
卫星全名:
星链-3995 (STARLINK-3995 )
卫星状态:
在轨 (已飞行1448 天)
发射日期:
2022-05-14 UTC
国别 :
美国 (US)
星等 :
--
Orbit Information
数据来源 国际轨道数据 AOE轨道数据
星历时间 2026-04-30T12:30:28+0800
19小时前
查看轨道信息
2026-04-27T17:00:00+0800
3天前
查看轨道信息
半长轴 6917.866km 6917.869km
偏心率 0.0001714 0.0002255
轨道倾角 53.218° 53.218°
近地点辐角 88.656° 50.297°
升交点赤经 37.934° 50.562°
平近点角 271.463° 142.720°
近地点 538.543km 538.172km
远地点 540.915km 541.292km
周期 95.437分钟 95.437分钟
每日圈数 15.088449 15.088439
Detailed Information
固有亮度:
5
最大亮度:
2.5
卫星平台:
Starlink v1.5
覆盖范围:
全球
运营商:
太空探索技术公司
运营商所在国:
美国
制造商(研发单位):
太空探索技术公司
制造商所在国:
美国
使用方式:
暂无
Satellite Introduction
星链(Starlink)计划是由太空探索技术公司(SpaceX)提出的一个巨型低轨卫星互联网星座项目,计划在2019年至2024年间在太空搭建由约1.2万颗卫星组成的“星链”网络,其中1584颗将部署在地球上空550千米处的近地轨道,并从2020年开始工作。该卫星仍在工作。
2D Orbit Map
3D Orbit Map
Orbit Altitude Analysis Chart
Orbit Inclination Analysis Chart
Orbit Comprehensive Analysis Chart
View Comprehensive Chart